Location: Pallagorio
(39.3000°N, 16.9000°E)
Time: 16:55:58
(UTC+00:00)

Cosmos 1937 Rocket - Pass Details

Date: 24 January 2021
Orbit: 746 x 780 km, 74.0° (Epoch: 02 March)

Event Time Altitude Azimuth Distance (km) Brightness Sun altitude
Rises 17:58:39 0° 210° (SSW) 3,238 7.3 -22.2°
Reaches altitude 10° 18:01:04 10° 215° (SW) 2,319 6.5 -22.6°
Maximum altitude 18:06:13 53° 292° (WNW) 953 4.2 -23.6°
Enters shadow 18:10:45 14° 7° (N) 2,095 5.6 -24.5°
